This demonstration page uses our WeatherBlox Daily Observations layout. Learn more.

Left ArrowRight Arrow

36.19886, -115.1175

Hourly Observations for November 14, 2021

Temp ( °F °C ) Dew Point ( °F °C ) Humidity (%) Winds ( mph kmh ) Pressure ( in mb ) Visibility ( mi km ) Precip ( " mm )
12:53 am 00:53 Clear 59 15 28 -2.2 31 31 Calm 30.22 1023 10 16 0.00 0.00
1:53 am 01:53 Clear 62 16.7 26 -3.3 25 25 Calm 30.21 1023 10 16 0.00 0.00
2:53 am 02:53 Clear 55 12.8 28 -2.2 35 35 NW 5 7 30.22 1023 10 16 0.00 0.00
3:53 am 03:53 Clear 56 13.3 28 -2.2 34 34 WNW 6 9 30.22 1024 10 16 0.00 0.00
4:53 am 04:53 Clear 56 13.3 26 -3.3 32 32 WNW 3 6 30.24 1024 10 16 0.00 0.00
5:53 am 05:53 Clear 57 13.9 25 -3.9 29 29 WNW 10 17 30.25 1024 10 16 0.00 0.00
6:53 am 06:53 Sunny 55 12.8 28 -2.2 35 35 W 3 6 30.27 1025 10 16 0.00 0.00
7:53 am 07:53 Sunny 60 15.6 29 -1.7 31 31 WNW 3 6 30.28 1025 10 16 0.00 0.00
8:53 am 08:53 Sunny 67 19.4 29 -1.7 24 24 Calm 30.27 1025 10 16 0.00 0.00
9:53 am 09:53 Sunny 72 22.2 29 -1.7 20 20 VRB 3 6 30.27 1025 10 16 0.00 0.00
10:53 am 10:53 Sunny 74 23.3 29 -1.7 19 19 Calm 30.25 1024 10 16 0.00 0.00
11:53 am 11:53 Sunny 76 24.4 29 -1.7 18 18 ESE 3 6 30.21 1023 10 16 0.00 0.00
12:53 pm 12:53 Sunny 78 25.6 29 -1.7 16 16 ESE 3 6 30.19 1022 10 16 0.00 0.00
1:53 pm 13:53 Sunny 79 26.1 28 -2.2 15 15 Calm 30.16 1021 10 16 0.00 0.00
2:53 pm 14:53 Sunny 80 26.7 27 -2.8 14 14 ENE 3 6 30.15 1021 10 16 0.00 0.00
3:53 pm 15:53 Sunny 79 26.1 27 -2.8 15 15 Calm 30.15 1021 10 16 0.00 0.00
4:53 pm 16:53 Clear 76 24.4 27 -2.8 16 16 Calm 30.15 1021 10 16 0.00 0.00
5:53 pm 17:53 Clear 69 20.6 30 -1.1 23 23 WNW 3 6 30.17 1022 10 16 0.00 0.00
6:53 pm 18:53 Clear 67 19.4 33 0.6 28 28 WNW 7 11 30.18 1022 10 16 0.00 0.00
7:53 pm 19:53 Clear 64 17.8 33 0.6 32 32 NW 6 9 30.19 1022 10 16 0.00 0.00
8:53 pm 20:53 Clear 62 16.7 31 -0.6 31 31 NW 6 9 30.19 1023 10 16 0.00 0.00
9:53 pm 21:53 Clear 61 16.1 32 0 34 34 SW 3 6 30.19 1022 10 16 0.00 0.00
10:53 pm 22:53 Clear 57 13.9 31 -0.6 37 37 NW 5 7 30.19 1022 10 16 0.00 0.00
11:53 pm 23:53 Clear 57 13.9 31 -0.6 37 37 Calm 30.18 1022 10 16 0.00 0.00

Powered by AerisWeather